Location: Mahannah Oil Field
(37.4664°N, 96.6003°W)
Time: 12:43:01
(UTC+00:00)

Transit 2A Rocket - Pass Details

Date: 23 January 2021
Orbit: 594 x 908 km, 66.7° (Epoch: 07 March)

Event Time Altitude Azimuth Distance (km) Brightness Sun altitude
Rises 05:26:37 0° 307° (NW) 2,852 - -66.1°
Reaches altitude 10° 05:30:38 10° 270° (W) 1,926 - -66.7°
Maximum altitude 05:31:41 11° 255° (WSW) 1,872 - -66.8°
Drops below altitude 10° 05:32:44 10° 241° (WSW) 1,923 - -67.0°
Sets 05:36:45 0° 204° (SSW) 2,839 - -67.5°
